Charlottesville, VA

8:24 AM EDT on May 26, 2017 (GMT -0400)
Charlottesville-Albemarle

Weather History for KCHO - July, 2012

Change the Weather History Date:

Saturday, July 7, 2012

  Actual Average Record
Temperature  
Mean Temperature 92 °F 76 °F  
Max Temperature 105 °F 87 °F 105 °F (2012)
Min Temperature 78 °F 65 °F 49 °F (1913)
Degree Days  
Heating Degree Days 0 0  
Month to date heating degree days 0 0  
Since 1 June heating degree days 0 11  
Since 1 July heating degree days 0 0  
Cooling Degree Days 27 11  
Month to date cooling degree days 160 72  
Year to date cooling degree days 732 377  
Since 1 June cooling degree days 462 291  
Growing Degree Days 41 (Base 50)    
Moisture  
Dew Point 71 °F    
Average Humidity 55    
Maximum Humidity 79    
Minimum Humidity 30    
Precipitation  
Precipitation 0.00 in 0.12 in 1.24 in (2005)
Month to date precipitation T 0.91  
Year to date precipitation 17.34 21.11  
Sea Level Pressure  
Sea Level Pressure 29.91 in    
Wind  
Wind Speed 2 mph (SSW)    
Max Wind Speed 10 mph    
Max Gust Speed 14 mph    
Visibility 9 miles    
Events      
T = Trace of Precipitation, MM = Missing Value Source: NWS Daily Summary

Daily Weather History Graph

Daily Weather History Graph

Search for Another Location

Airport or City:

Trip Planner

Search our weather history database for the weather conditions in past years. The results will help you decide how hot, cold, wet, or windy it might be!

Date:

Astronomy

Jul. 07, 2012 Rise Set
Actual Time 5:57 AM EDT 8:39 PM EDT
Civil Twilight 5:26 AM EDT 9:10 PM EDT
Nautical Twilight 4:47 AM EDT 9:49 PM EDT
Astronomical Twilight 4:04 AM EDT 10:33 PM EDT
Moon 11:02 PM EDT (7/7) 10:16 AM EDT (7/7)
Length of Visible Light 15h 43m
Length of Day
14h 41m
Waning Gibbous, 82% of the Moon is Illuminated
Jul 7
Waning Gibbous
Jul 10
Last Quarter
Jul 19
New
Jul 26
First Quarter
Aug 1
Full

Hourly Weather History & Observations

Time (EDT) Temp. Heat Index Dew Point Humidity Pressure Visibility Wind Dir Wind Speed Gust Speed Precip Events Conditions
12:53 AM 82.4 °F 88.2 °F 73.4 °F 74% 29.97 in 7.0 mi Calm Calm - N/A   Clear
1:53 AM 82.0 °F 87.9 °F 73.9 °F 76% 29.94 in 6.0 mi Calm Calm - N/A   Haze
2:53 AM 81.0 °F 85.8 °F 73.0 °F 77% 29.93 in 7.0 mi Calm Calm - N/A   Clear
3:53 AM 79.0 °F - 72.0 °F 79% 29.93 in 6.0 mi SSW 4.6 mph - N/A   Haze
4:53 AM 80.1 °F 83.8 °F 72.0 °F 76% 29.93 in 9.0 mi Calm Calm - N/A   Clear
5:53 AM 78.1 °F - 72.0 °F 81% 29.94 in 8.0 mi Calm Calm - N/A   Clear
6:53 AM 78.8 °F - 71.6 °F 78% 29.96 in 7.0 mi Calm Calm - N/A   Clear
7:53 AM 82.0 °F 86.7 °F 72.0 °F 71% 29.95 in 9.0 mi Calm Calm - N/A   Clear
8:53 AM 88.0 °F 95.6 °F 73.0 °F 61% 29.95 in 8.0 mi Calm Calm - N/A   Clear
9:53 AM 93.0 °F 101.9 °F 73.0 °F 52% 29.94 in 10.0 mi SW 4.6 mph - N/A   Clear
10:53 AM 98.1 °F 108.0 °F 73.0 °F 44% 29.93 in 10.0 mi NW 4.6 mph - N/A   Clear
11:53 AM 100.9 °F 106.0 °F 66.9 °F 33% 29.93 in 10.0 mi Variable 4.6 mph - N/A   Clear
12:53 PM 102.0 °F 107.3 °F 66.9 °F 32% 29.93 in 10.0 mi Variable 3.5 mph - N/A   Clear
1:53 PM 102.9 °F 107.6 °F 66.0 °F 30% 29.91 in 10.0 mi Calm Calm - N/A   Clear
2:53 PM 104.0 °F 109.6 °F 66.9 °F 30% 29.89 in 10.0 mi Variable 3.5 mph - N/A   Clear
3:53 PM 102.9 °F 108.3 °F 66.9 °F 31% 29.88 in 10.0 mi Calm Calm - N/A   Partly Cloudy
4:53 PM 102.0 °F 108.1 °F 68.0 °F 33% 29.86 in 10.0 mi South 4.6 mph - N/A   Clear
5:53 PM 102.0 °F 108.8 °F 69.1 °F 34% 29.84 in 10.0 mi South 8.1 mph - N/A   Clear
6:53 PM 100.9 °F 108.2 °F 69.1 °F 36% 29.86 in 10.0 mi SSW 3.5 mph - N/A   Clear
7:53 PM 98.1 °F 107.2 °F 72.0 °F 43% 29.87 in 10.0 mi Calm Calm - N/A   Clear
8:53 PM 93.0 °F 101.9 °F 73.0 °F 52% 29.87 in 10.0 mi SW 3.5 mph - N/A   Clear
9:53 PM 91.9 °F 100.7 °F 73.0 °F 54% 29.87 in 10.0 mi SW 3.5 mph - N/A   Clear
10:53 PM 89.1 °F 98.0 °F 73.9 °F 61% 29.88 in 10.0 mi Calm Calm - N/A   Clear
11:53 PM 86.0 °F 95.1 °F 75.0 °F 70% 29.88 in 10.0 mi Calm Calm - N/A   Clear